Rutherfordton, NC

2:53 AM EDT on August 23, 2017 (GMT -0400)
Rutherford County-Marchman

Weather History for KFQD - October, 2012

Change the Weather History Date:

Tuesday, October 2, 2012

  Actual Average (KAVL) Record (KAVL)
Temperature  
Mean Temperature 68 °F -  
Max Temperature 78 °F 72 °F 87 °F (1897)
Min Temperature 59 °F 48 °F 28 °F (1895)
Cooling Degree Days 4    
Growing Degree Days 18 (Base 50)    
Moisture  
Dew Point 63 °F    
Average Humidity 85    
Maximum Humidity 100    
Minimum Humidity 57    
Precipitation  
Precipitation 0.76 in - - ()
Sea Level Pressure  
Sea Level Pressure 29.86 in    
Wind  
Wind Speed 4 mph (SW)    
Max Wind Speed 14 mph    
Max Gust Speed 22 mph    
Visibility 8 miles    
Events Rain    
Averages and records for this station are not official NWS values.
T = Trace of Precipitation, MM = Missing Value Source: NWS Daily Summary

Daily Weather History Graph

Daily Weather History Graph

Search for Another Location

Airport or City:

Trip Planner

Search our weather history database for the weather conditions in past years. The results will help you decide how hot, cold, wet, or windy it might be!

Date:

Astronomy

Oct. 02, 2012 Rise Set
Actual Time 7:23 AM EDT 7:09 PM EDT
Civil Twilight 6:58 AM EDT 7:34 PM EDT
Nautical Twilight 6:28 AM EDT 8:04 PM EDT
Astronomical Twilight 5:59 AM EDT 8:33 PM EDT
Moon 8:29 PM EDT (10/2) 9:42 AM EDT (10/2)
Length of Visible Light 12h 36m
Length of Day
11h 45m
Waning Gibbous, 94% of the Moon is Illuminated
Oct 2
Waning Gibbous
Oct 8
Last Quarter
Oct 15
New
Oct 21
First Quarter
Oct 29
Full

Hourly Weather History & Observations

Time (EDT) Temp. Dew Point Humidity Pressure Visibility Wind Dir Wind Speed Gust Speed Precip Events Conditions
12:19 AM 59.0 °F 59.0 °F 100% 29.84 in 5.0 mi Calm Calm - 0.06 in Rain Heavy Rain
12:36 AM 59.0 °F 59.0 °F 100% 29.84 in 1.5 mi NW 3.5 mph - 0.28 in Rain Heavy Rain
12:56 AM 59.0 °F 57.2 °F 94% 29.82 in 10.0 mi North 5.8 mph - 0.33 in Rain Light Rain
1:16 AM 59.0 °F 57.2 °F 94% 29.82 in 3.0 mi NW 3.5 mph - 0.08 in Rain Light Rain
1:36 AM 59.0 °F 59.0 °F 100% 29.80 in 7.0 mi NNE 6.9 mph - 0.08 in   Drizzle
2:16 AM 59.0 °F 59.0 °F 100% 29.79 in 7.0 mi Calm Calm - 0.01 in Rain Light Rain
2:36 AM 59.0 °F 59.0 °F 100% 29.80 in 4.0 mi WNW 5.8 mph - 0.04 in Rain Heavy Rain
2:56 AM 59.0 °F 59.0 °F 100% 29.80 in 4.0 mi NNW 5.8 mph - 0.08 in Rain Light Rain
3:16 AM 60.8 °F 59.0 °F 94% 29.80 in 7.0 mi North 8.1 mph - N/A Rain Light Rain
3:39 AM 60.8 °F 60.8 °F 100% 29.79 in 10.0 mi NNE 5.8 mph - N/A   Light Drizzle
3:56 AM 60.8 °F 60.8 °F 100% 29.78 in 10.0 mi NNE 8.1 mph - N/A   Overcast
4:16 AM 60.8 °F 60.8 °F 100% 29.80 in 7.0 mi NW 3.5 mph - N/A   Overcast
4:36 AM 60.8 °F 60.8 °F 100% 29.80 in 10.0 mi Calm Calm - 0.01 in   Overcast
5:16 AM 60.8 °F 60.8 °F 100% 29.79 in 7.0 mi North 3.5 mph - N/A   Overcast
5:36 AM 60.8 °F 60.8 °F 100% 29.79 in 4.0 mi NW 3.5 mph - 0.03 in Rain Rain
5:56 AM 60.8 °F 60.8 °F 100% 29.79 in 7.0 mi Calm Calm - 0.04 in Rain Light Rain
6:16 AM 60.8 °F 60.8 °F 100% 29.79 in 5.0 mi North 5.8 mph - 0.02 in Rain Rain
6:36 AM 62.6 °F 60.8 °F 94% 29.79 in 7.0 mi North 5.8 mph - 0.03 in Rain Light Rain
6:56 AM 62.6 °F 62.6 °F 100% 29.79 in 7.0 mi NE 3.5 mph - 0.04 in Rain Light Rain
7:16 AM 62.6 °F 62.6 °F 100% 29.80 in 5.0 mi North 3.5 mph - N/A Rain Light Rain
7:36 AM 62.6 °F 62.6 °F 100% 29.80 in 3.0 mi Calm Calm - 0.01 in Rain Rain
7:56 AM 62.6 °F 62.6 °F 100% 29.80 in 1.8 mi NNE 5.8 mph - 0.02 in Rain Light Rain
8:16 AM 66.2 °F 66.2 °F 100% 29.80 in 0.5 mi East 4.6 mph - N/A   Drizzle
8:36 AM 66.2 °F 66.2 °F 100% 29.80 in 0.8 mi East 4.6 mph - N/A   Drizzle
8:56 AM 68.0 °F 68.0 °F 100% 29.80 in 0.8 mi ESE 4.6 mph - 0.01 in   Drizzle
9:16 AM 69.8 °F 69.8 °F 100% 29.80 in 1.2 mi SE 5.8 mph - 0.12 in Rain Heavy Rain
9:36 AM 66.2 °F 66.2 °F 100% 29.82 in 5.0 mi Calm Calm - 0.14 in Rain Rain
9:56 AM 66.2 °F 66.2 °F 100% 29.84 in 10.0 mi SSW 3.5 mph - 0.15 in   Overcast
10:16 AM 68.0 °F 66.2 °F 94% 29.85 in 10.0 mi SSW 3.5 mph - N/A   Overcast
10:36 AM 68.0 °F 66.2 °F 94% 29.86 in 10.0 mi SSW 4.6 mph - N/A   Overcast
10:59 AM 69.8 °F 68.0 °F 94% 29.85 in 10.0 mi Calm Calm - N/A   Overcast
11:16 AM 71.6 °F 68.0 °F 88% 29.85 in 10.0 mi Calm Calm - N/A   Mostly Cloudy
11:36 AM 73.4 °F 68.0 °F 83% 29.85 in 10.0 mi South 3.5 mph - N/A   Mostly Cloudy
11:56 AM 75.2 °F 66.2 °F 73% 29.86 in 10.0 mi SSE 6.9 mph - N/A   Overcast
12:16 PM 73.4 °F 64.4 °F 73% 29.87 in 10.0 mi SSW 9.2 mph - N/A   Overcast
12:36 PM 75.2 °F 66.2 °F 73% 29.86 in 10.0 mi SSW 8.1 mph - N/A   Overcast
12:56 PM 75.2 °F 64.4 °F 69% 29.86 in 10.0 mi SSE 10.4 mph 17.3 mph N/A   Mostly Cloudy
1:16 PM 77.0 °F 64.4 °F 65% 29.85 in 10.0 mi SSW 8.1 mph 17.3 mph N/A   Mostly Cloudy
1:36 PM 77.0 °F 64.4 °F 65% 29.85 in 10.0 mi South 6.9 mph - N/A   Mostly Cloudy
1:56 PM 78.8 °F 64.4 °F 61% 29.85 in 10.0 mi SSW 10.4 mph 17.3 mph N/A   Mostly Cloudy
2:16 PM 77.0 °F 62.6 °F 61% 29.86 in 10.0 mi South 13.8 mph - N/A   Mostly Cloudy
2:36 PM 75.2 °F 62.6 °F 65% 29.86 in 10.0 mi South 9.2 mph - N/A   Overcast
2:56 PM 78.8 °F 62.6 °F 57% 29.86 in 10.0 mi South 13.8 mph 21.9 mph N/A   Mostly Cloudy
3:16 PM 78.8 °F 62.6 °F 57% 29.86 in 10.0 mi SSW 11.5 mph 19.6 mph N/A   Scattered Clouds
3:36 PM 78.8 °F 62.6 °F 57% 29.86 in 10.0 mi SSW 8.1 mph - N/A   Scattered Clouds
4:16 PM 78.8 °F 62.6 °F 57% 29.87 in 10.0 mi SW 8.1 mph 18.4 mph N/A   Overcast
4:36 PM 77.0 °F 62.6 °F 61% 29.88 in 10.0 mi SW 9.2 mph - N/A   Overcast
4:56 PM 75.2 °F 62.6 °F 65% 29.89 in 10.0 mi SSW 4.6 mph - N/A   Mostly Cloudy
5:16 PM 77.0 °F 62.6 °F 61% 29.89 in 10.0 mi SSW 6.9 mph - N/A   Scattered Clouds
5:36 PM 75.2 °F 62.6 °F 65% 29.90 in 10.0 mi SSW 6.9 mph - N/A   Scattered Clouds
5:56 PM 75.2 °F 62.6 °F 65% 29.90 in 10.0 mi SSW 3.5 mph - N/A   Scattered Clouds
6:16 PM 75.2 °F 62.6 °F 65% 29.90 in 10.0 mi SW 5.8 mph - N/A   Scattered Clouds
6:35 PM 73.4 °F 62.6 °F 69% 29.91 in 10.0 mi SW 4.6 mph - N/A   Clear
6:55 PM 73.4 °F 62.6 °F 69% 29.92 in 10.0 mi SW 3.5 mph - N/A   Clear
7:15 PM 71.6 °F 62.6 °F 73% 29.93 in 10.0 mi SW 3.5 mph - N/A   Scattered Clouds
7:35 PM 71.6 °F 62.6 °F 73% 29.94 in 10.0 mi SSW 3.5 mph - N/A   Mostly Cloudy
8:16 PM 69.8 °F 62.6 °F 78% 29.95 in 10.0 mi SW 3.5 mph - N/A   Clear
8:35 PM 69.8 °F 62.6 °F 78% 29.96 in 10.0 mi SSW 3.5 mph - N/A   Clear
8:55 PM 68.0 °F 62.6 °F 83% 29.97 in 10.0 mi Calm Calm - N/A   Clear
9:15 PM 66.2 °F 62.6 °F 88% 29.97 in 10.0 mi Calm Calm - N/A   Clear
9:35 PM 64.4 °F 62.6 °F 94% 29.98 in 10.0 mi Calm Calm - N/A   Clear
9:55 PM 66.2 °F 62.6 °F 88% 29.99 in 10.0 mi Calm Calm - N/A   Scattered Clouds
10:15 PM 64.4 °F 62.6 °F 94% 29.99 in 10.0 mi Calm Calm - N/A   Scattered Clouds
10:35 PM 64.4 °F 62.6 °F 94% 29.99 in 10.0 mi Calm Calm - N/A   Clear
10:55 PM 62.6 °F 62.6 °F 100% 29.99 in 10.0 mi Calm Calm - N/A   Mostly Cloudy
11:15 PM 64.4 °F 62.6 °F 94% 30.00 in 10.0 mi Calm Calm - N/A   Mostly Cloudy
11:55 PM 62.6 °F 62.6 °F 100% 30.00 in 10.0 mi Calm Calm - N/A   Mostly Cloudy